User: anonymous   Login
Location: Borz?cin
(51.1714°N, 19.6030°E)
Time: 09:15:39
(UTC+00:00)
Language:

USA 234 - Orbit

View from above orbital plane
View from above orbital plane
View from above satellite
View from above satellite

Ground track
Ground track

The orbit is defined by the following mean orbital elements,

1 38109U 12014A   26004.23950474 0.00000080  00000-0  14322-3 0    01
2 38109 122.9990 327.0931 0002693 246.5785 113.4215 13.41451777    04
Epoch (UTC): 04 January 2026 05:44:53
Eccentricity: 0.0002693
inclination: 122.9990°
perigee height: 1102 km
apogee height: 1106 km
right ascension of ascending node: 327.0931°
argument of perigee: 246.5785°
revolutions per day: 13.41451777
mean anomaly at epoch: 113.4215°

The dashed part of the orbit path shows where the satellite is in the earth's shadow,  

DLR